Abingdon, VA

10:01 AM EDT on April 10, 2020 (GMT -0400)
Virginia Highlands

Weather History for KVJI - December, 2019

Change the Weather History Date:

Wednesday, December 11, 2019

  Actual Average (KTRI) Record (KTRI)
Temperature  
Mean Temperature 28 °F -  
Max Temperature 32 °F 47 °F 72 °F (2007)
Min Temperature 23 °F 30 °F 4 °F (1962)
Degree Days  
Heating Degree Days 38    
Moisture  
Dew Point 22 °F    
Average Humidity 77    
Maximum Humidity 89    
Minimum Humidity 62    
Precipitation  
Precipitation 0.01 in - - ()
Sea Level Pressure  
Sea Level Pressure 30.42 in    
Wind  
Wind Speed 4 mph (WNW)    
Max Wind Speed 9 mph    
Max Gust Speed -    
Visibility 10 miles    
Events Snow    
Averages and records for this station are not official NWS values.
T = Trace of Precipitation, MM = Missing Value Source: NWS Daily Summary

Daily Weather History Graph

Daily Weather History Graph

Search for Another Location

Airport or City:

Astronomy

Dec. 11, 2019 Rise Set
Actual Time 7:30 AM EST 5:12 PM EST
Civil Twilight 7:01 AM EST 5:41 PM EST
Nautical Twilight 6:29 AM EST 6:13 PM EST
Astronomical Twilight 5:57 AM EST 6:44 PM EST
Moon 5:01 PM EST (12/11) 6:44 AM EST (12/11)
Length of Visible Light 10h 39m
Length of Day
9h 42m
Full, 100% of the Moon is Illuminated
Dec 11
Full
Dec 12
Full
Dec 18
Last Quarter
Dec 26
New
Jan 2
First Quarter

Hourly Weather History & Observations

Time (EST) Temp. Windchill Dew Point Humidity Pressure Visibility Wind Dir Wind Speed Gust Speed Precip Events Conditions
12:35 AM 29.1 °F 24.1 °F 25.5 °F 86% 30.26 in 2.5 mi NNW 4.6 mph - N/A Snow Light Snow
1:35 AM 27.1 °F - 23.2 °F 85% 30.26 in 1.0 mi Calm Calm - N/A Snow Snow
1:55 AM 27.1 °F 21.8 °F 23.9 °F 88% 30.26 in 2.5 mi WNW 4.6 mph - 0.01 in Snow Light Snow
2:15 AM 27.3 °F 20.9 °F 23.9 °F 87% 30.28 in 10.0 mi WNW 5.8 mph - N/A Snow Light Snow
2:55 AM 27.3 °F 19.9 °F 22.1 °F 81% 30.28 in 10.0 mi WNW 6.9 mph - N/A   Overcast
3:15 AM 27.3 °F 22.0 °F 20.1 °F 74% 30.30 in 10.0 mi WNW 4.6 mph - N/A   Mostly Cloudy
3:35 AM 27.3 °F 20.9 °F 21.0 °F 77% 30.31 in 10.0 mi WNW 5.8 mph - N/A   Clear
4:35 AM 26.1 °F 19.4 °F 21.2 °F 82% 30.34 in 10.0 mi West 5.8 mph - N/A   Clear
5:15 AM 25.7 °F 21.5 °F 21.2 °F 83% 30.34 in 10.0 mi West 3.5 mph - N/A   Clear
5:35 AM 25.3 °F 21.1 °F 21.7 °F 86% 30.35 in 10.0 mi West 3.5 mph - N/A   Clear
5:55 AM 24.8 °F 19.1 °F 21.6 °F 87% 30.36 in 10.0 mi West 4.6 mph - N/A   Scattered Clouds
6:35 AM 24.6 °F 20.3 °F 21.7 °F 89% 30.37 in 10.0 mi NW 3.5 mph - N/A   Scattered Clouds
6:55 AM 24.4 °F 20.1 °F 21.4 °F 88% 30.37 in 10.0 mi NW 3.5 mph - N/A   Scattered Clouds
7:15 AM 24.1 °F - 21.0 °F 88% 30.37 in 10.0 mi Calm Calm - N/A   Mostly Cloudy
7:35 AM 23.9 °F 19.5 °F 20.3 °F 86% 30.39 in 10.0 mi NNW 3.5 mph - N/A   Scattered Clouds
8:15 AM 23.7 °F 19.3 °F 18.5 °F 80% 30.40 in 10.0 mi NW 3.5 mph - N/A   Clear
8:55 AM 25.5 °F 21.3 °F 18.9 °F 76% 30.42 in 10.0 mi WSW 3.5 mph - N/A   Clear
9:35 AM 26.6 °F 22.6 °F 20.1 °F 77% 30.43 in 10.0 mi WNW 3.5 mph - N/A   Clear
9:55 AM 27.9 °F - 20.8 °F 75% 30.43 in 10.0 mi Calm Calm - N/A   Scattered Clouds
10:55 AM 28.4 °F 21.2 °F 19.2 °F 69% 30.47 in 10.0 mi West 6.9 mph - N/A   Mostly Cloudy
11:15 AM 29.1 °F 20.6 °F 19.0 °F 66% 30.47 in 10.0 mi West 9.2 mph - N/A   Mostly Cloudy
11:35 AM 29.1 °F 22.1 °F 18.7 °F 65% 30.46 in 10.0 mi West 6.9 mph - N/A   Scattered Clouds
11:55 AM 29.8 °F 23.0 °F 18.3 °F 62% 30.44 in 10.0 mi West 6.9 mph - N/A   Scattered Clouds
12:15 PM 30.2 °F 21.9 °F 21.0 °F 69% 30.44 in 10.0 mi WSW 9.2 mph - N/A   Mostly Cloudy
12:35 PM 29.8 °F 21.5 °F 20.7 °F 69% 30.44 in 10.0 mi West 9.2 mph - N/A   Mostly Cloudy
12:55 PM 30.7 °F 22.6 °F 20.8 °F 67% 30.44 in 10.0 mi West 9.2 mph - N/A   Scattered Clouds
1:55 PM 31.8 °F 24.6 °F 21.2 °F 65% 30.46 in 10.0 mi West 8.1 mph - N/A   Scattered Clouds
2:15 PM 32.0 °F 24.2 °F 20.5 °F 63% 30.46 in 10.0 mi WNW 9.2 mph - N/A   Scattered Clouds
3:15 PM 32.4 °F 24.6 °F 21.0 °F 63% 30.47 in 10.0 mi WNW 9.2 mph - N/A   Scattered Clouds
3:35 PM 32.9 °F 25.3 °F 22.6 °F 66% 30.47 in 10.0 mi West 9.2 mph - N/A   Clear
3:55 PM 32.9 °F 25.9 °F 21.9 °F 64% 30.47 in 10.0 mi West 8.1 mph - N/A   Clear
4:15 PM 32.9 °F 25.3 °F 22.5 °F 65% 30.47 in 10.0 mi West 9.2 mph - N/A   Clear
4:35 PM 32.4 °F 25.3 °F 21.9 °F 65% 30.48 in 10.0 mi West 8.1 mph - N/A   Clear
4:55 PM 32.0 °F 25.6 °F 22.1 °F 67% 30.48 in 10.0 mi West 6.9 mph - N/A   Clear
5:55 PM 30.2 °F 26.7 °F 22.5 °F 73% 30.49 in 10.0 mi WNW 3.5 mph - N/A   Clear
6:15 PM 30.2 °F 25.4 °F 23.0 °F 75% 30.49 in 10.0 mi WSW 4.6 mph - N/A   Clear
6:55 PM 28.9 °F - 23.0 °F 78% 30.50 in 10.0 mi Calm Calm - N/A   Clear
7:35 PM 28.6 °F - 23.0 °F 80% 30.49 in 10.0 mi Calm Calm - N/A   Clear
7:55 PM 28.8 °F - 22.6 °F 78% 30.50 in 10.0 mi Calm Calm - N/A   Clear
8:15 PM 27.5 °F 23.6 °F 22.1 °F 80% 30.50 in 10.0 mi NW 3.5 mph - N/A   Clear
8:35 PM 27.3 °F 23.4 °F 22.8 °F 83% 30.50 in 10.0 mi WNW 3.5 mph - N/A   Clear
9:15 PM 26.8 °F - 22.8 °F 85% 30.51 in 10.0 mi Calm Calm - N/A   Clear
9:35 PM 26.8 °F - 22.8 °F 85% 30.51 in 10.0 mi Calm Calm - N/A   Clear
9:55 PM 25.9 °F - 22.1 °F 86% 30.51 in 10.0 mi Calm Calm - N/A   Clear
10:15 PM 26.4 °F - 22.8 °F 86% 30.51 in 10.0 mi Calm Calm - N/A   Clear
10:35 PM 25.7 °F - 22.1 °F 86% 30.51 in 10.0 mi Calm Calm - N/A   Clear
11:55 PM 24.8 °F - 21.6 °F 87% 30.51 in 10.0 mi Calm Calm - N/A   Clear